Location: Sydney
(46.1500°N, 60.1670°W)
Time: 18:27:09
(UTC-03:00)

Iridium 90 - Visible Passes

Search period start: 27 May 2018 00:00
Search period end: 06 June 2018 00:00
Orbit: 246 x 661 km, 86.4° (Epoch: 27 May)

Date Brightness Start Highest point End Pass type
(mag) Time Alt. Az. Time Alt. Az. Time Alt. Az.
27 May 3.1 22:11:01 32° SSE 22:11:50 69° E 22:13:59 10° N visible
28 May 5.0 21:36:32 14° SE 21:37:37 18° E 21:39:15 10° NE visible
29 May 5.8 22:35:33 11° SW 22:37:05 19° W 22:38:46 10° NNW visible
30 May 3.3 22:00:42 14° S 22:02:26 75° W 22:04:36 10° N visible
31 May 4.5 21:25:53 10° SSE 21:27:44 25° E 21:29:36 10° NNE visible
01 Jun 6.3 22:25:24 10° WSW 22:26:46 15° W 22:28:11 10° NW visible
02 Jun 4.0 21:49:29 10° SSW 21:51:36 51° W 21:53:47 10° N visible
04 Jun 6.5 22:13:53 10° WSW 22:15:02 13° WNW 22:16:13 10° NW visible
05 Jun 4.7 21:37:14 10° SSW 21:39:19 40° W 21:41:36 10° N visible
